753  
ASUS43 KDTX 220210  
RWRMI  
MICHIGAN HOURLY REGIONAL WEATHER ROUNDUP  
NATIONAL WEATHER SERVICE DETROIT/PONTIAC MI  
900 PM EST FRI NOV 21 2014  
 
NOTE: "FAIR" INDICATES FEW OR NO CLOUDS BELOW 12,000 FEET WITH NO  
SIGNIFICANT WEATHER AND/OR TO VISIBILITY
.  
 
MIZ047>049-052>055-059>063-066>070-074>076-081>083-220300-  
SOUTHEAST LOWER MICHIGAN  
 
CITY SKY/WX TMP DP RH WIND PRES REMARKS
 
ADRIAN PTCLDY 17 11 77 S5 30.39F  
ALMA PTCLDY 22 14 70 S8 30.31F  
ANN ARBOR PTCLDY 18 10 71 S5 30.37F  
BAD AXE MOCLDY 23 13 66 S13 30.32F  
DETROIT CITY CLEAR 24 13 62 SW10 30.39F  
DETROIT PTCLDY 20 12 71 S8 30.40F  
FLINT N/A 23 12 62 S7 30.34F  
GROSSE ILE PTCLDY 27 16 63 S13 30.39F  
HILLSDALE PTCLDY 20 11 69 S9 30.34S  
HOWELL PTCLDY 20 12 71 S10 30.33F  
 
CITY SKY/WX TMP DP RH WIND PRES REMARKS
 
JACKSON PTCLDY 20 11 68 S9 30.34F  
LAMBERTVILLE N/A 23 14 68 S3 30.40F  
LANSING PTCLDY 22 11 62 S13 30.33F  
LAPEER NOT AVBL  
MASON CLEAR 20 13 72 S6 30.33F  
MONROE PTCLDY 19 12 73 S5 30.38F  
MT. CLEMENS PTCLDY 19 13 78 S6 30.37F  
PONTIAC CLEAR 20 11 68 S8 30.34F  
PORT HOPE N/A 23 10 57 CALM 30.30F  
PORT HURON PTCLDY 23 16 74 SW6 30.37F  
TRI CITIES MOCLDY 26 14 60 S12 30.32F  
YPSILANTI PTCLDY 22 12 65 S8 30.39F  

 
MIZ043>046-050>051-056>058-064>065-071>073-077>080-220300-  
SOUTHWEST LOWER MICHIGAN  
 
CITY SKY/WX TMP DP RH WIND PRES REMARKS
 
BATTLE CREEK PTCLDY 23 11 60 S12 30.33S  
BENTON HARBOR CLEAR 25 12 58 S13 30.32F  
BIG RAPIDS MOCLDY 26 15 65 S7 30.24F  
COLDWATER PTCLDY 21 13 72 S5 30.34F  
HOLLAND CLEAR 25 12 58 S10 30.30F  
GRAND RAPIDS PTCLDY 23 12 62 S12 30.30F  
KALAMAZOO PTCLDY 23 11 60 S9 30.33F  
MARSHALL PTCLDY 20 11 70 S7 30.33F  
MUSKEGON PTCLDY 26 12 55 SE12 30.27F  

 
MIZ016>042-220300-  
NORTHERN LOWER MICHIGAN  
 
CITY SKY/WX TMP DP RH WIND PRES REMARKS
 
ALPENA MOCLDY 24 14 65 SW13 30.21F  
BEAVER ISLAND PTCLDY 32 26 78 S15G21 30.09F  
BELLAIRE MOCLDY 27 19 71 S9 30.18F  
CADILLAC MOCLDY 23 17 77 S14G22 30.18F  
CHARLEVOIX PTCLDY 28 20 72 S15G21 30.17F  
FRANKFORT MOCLDY 31 23 73 S10G20 30.17F  
GAYLORD MOCLDY 22 15 75 S18G25 30.14F  
GRAYLING PTCLDY 23 15 71 S7 30.19F  
HARBOR SPRINGS MOCLDY 27 19 71 SW15G21 30.14F  
HOUGHTON LAKE PTCLDY 23 14 68 S10 30.22F  
MANISTEE MOCLDY 30 19 64 S12 30.20F  
OSCODA MOCLDY 25 15 67 SW18 30.26F  
PELLSTON MOCLDY 26 16 65 S7 30.14F  
TRAVERSE CITY PTCLDY 28 18 66 VRB6 30.16F  

 
MIZ007>008-015-220300-  
EASTERN UPPER MICHIGAN  
 
CITY SKY/WX TMP DP RH WIND PRES REMARKS
 
KINROSS CLOUDY 27 21 80 S13G21 30.08F  
MACKINAC ISLAN CLOUDY 28 19 69 S16G24 30.11F  
NEWBERRY CLOUDY 30 24 78 S22G29 30.02F  
S. S. MARIE CLOUDY 25 18 74 S8 30.06F  

 
MIZ004>006-011>014-085-220300-  
CENTRAL UPPER MICHIGAN  
 
CITY SKY/WX TMP DP RH WIND PRES REMARKS
 
MANISTIQUE CLOUDY 33 23 68 SW12G28 30.05F  
ESCANABA MOCLDY 28 10 47 SW17G25 30.05F  
MENOMINEE MOCLDY 28 12 50 SW18G30 30.08F  
SAWYER-GWINN CLEAR 19 10 68 S20 29.95F  

 
MIZ001>003-009>011-084-220300-  
WESTERN UPPER MICHIGAN  
 
CITY SKY/WX TMP DP RH WIND PRES REMARKS
 
IRON MOUNTAIN CLOUDY 23 8 52 S12 29.98F  
HOUGHTON CLOUDY 26 11 52 SW9 29.82F  
COPPER HARBOR N/A 28 12 51 W14G25 29.82F  
IRONWOOD MOCLDY 27 12 54 SW15G24 29.82F  

 
 
ABBREVIATIONS USED IN REMARKS  
TC - TEMPERATURE IN CELSIUS  
WCI - WIND CHILL INDEX  
HX - HEAT INDEX  
VSB - VISIBILITY  
 
CLICK HERE TO GO TO PREVIOUS BULLETINS.

The Nexlab MI Page Main Text Page